Theta_e
348 346 345 344 346 345 344 345 351 353 350 351 351 349 352 351 351 352 351 352 352 351 351 351 349 350 347 350 350 353 352 351 347 347 346 346 348 349 352 355 354 353 352
349 348 346 344 344 346 345 343 345 353 352 349 349 351 351 351 352 352 353 353 353 353 353 351 350 353 353 353 352 350 349 350 353 352 350 350 353 354 354 351 353 355 351
349 349 349 345 343 345 347 344 344 347 352 353 352 350 352 351 352 352 352 352 353 352 353 354 353 351 352 355 355 354 352 352 354 358 358 357 355 352 355 356 355 351 346
350 350 350 349 345 343 346 347 347 346 349 351 353 354 352 350 352 353 353 354 353 352 352 352 355 354 351 352 353 353 353 354 357 356 354 354 355 356 359 357 356 350 346
351 350 350 351 349 345 343 347 344 348 346 348 350 354 355 353 353 353 351 350 351 351 350 350 354 357 356 355 355 353 352 353 355 357 358 358 358 358 360 359 352 350 351
352 352 351 351 352 351 345 344 345 343 346 345 344 349 354 356 355 354 352 352 351 351 350 349 350 351 355 356 355 354 352 353 354 357 357 357 358 359 354 352 352 353 353
354 354 354 351 353 353 353 348 346 345 343 348 349 345 349 352 355 355 354 354 352 351 351 352 351 350 351 352 355 356 355 354 354 356 357 357 356 354 353 353 353 354 353
350 355 355 356 354 354 353 354 352 350 347 346 349 351 353 355 355 355 355 355 355 354 353 351 351 349 350 351 351 351 352 353 353 353 353 353 354 353 355 356 355 353 355
352 354 358 357 357 356 355 355 355 355 352 349 350 354 353 353 353 353 353 355 357 358 356 355 353 351 349 351 354 354 353 351 348 352 355 357 358 359 354 353 354 354 354
346 347 353 359 358 358 358 356 356 356 355 353 351 351 355 357 357 356 356 356 357 357 357 356 355 354 352 350 351 350 353 352 351 348 348 349 351 353 353 355 356 354 354
338 345 346 355 358 358 359 358 358 357 356 356 355 353 351 353 355 356 357 358 357 355 354 353 354 353 352 351 351 350 351 348 349 351 350 349 348 351 354 357 358 358 357
336 341 348 356 358 359 359 359 358 358 357 357 357 357 356 356 357 358 358 358 358 357 355 353 352 351 349 350 350 350 349 349 349 349 349 350 351 352 352 353 354 358 359
330 337 345 357 358 358 359 359 358 358 358 357 357 357 358 358 358 358 358 359 359 360 358 356 355 354 353 353 352 352 351 351 352 349 349 351 352 351 351 352 359 360 361
329 335 339 353 359 358 359 359 359 358 359 359 358 358 358 358 359 359 360 360 360 360 361 359 358 358 357 355 354 354 353 351 350 349 349 349 350 350 351 358 361 362 362
327 331 334 355 360 359 359 359 360 360 359 360 359 359 359 359 359 359 360 361 361 361 361 359 357 357 357 356 355 354 353 354 354 354 354 352 352 353 357 360 361 362 363
324 330 330 338 359 362 360 361 361 361 360 360 360 360 360 360 360 360 360 361 361 361 359 356 355 356 355 355 355 355 355 355 355 355 353 352 355 356 359 361 361 363 363
321 327 329 334 346 362 362 363 361 362 363 362 362 361 361 362 362 361 361 361 361 362 358 356 356 355 355 355 355 355 354 354 354 353 352 353 356 359 362 362 361 360 356
320 326 329 330 339 346 362 362 361 361 360 361 364 364 364 363 363 362 362 361 359 358 355 357 357 357 356 355 355 355 356 356 355 355 355 356 358 362 362 363 359 357 356
320 324 327 331 336 342 349 358 362 360 359 361 359 362 364 364 364 362 360 357 355 351 349 353 354 354 355 355 356 357 359 359 360 359 360 360 362 360 360 361 359 357 356
320 323 329 333 336 339 345 353 358 359 359 358 353 352 351 349 353 356 355 353 353 355 354 353 355 357 357 355 354 354 355 355 355 351 347 347 350 354 356 357 357 356 356
316 318 319 325 324 327 334 340 348 351 344 341 341 344 345 350 346 344 342 340 340 340 338 337 333 334 336 342 339 338 338 338 345 334 333 337 336 346 352 353 354 353 353
313 312 312 314 314 315 319 324 325 327 326 323 321 330 329 326 324 321 324 326 326 327 324 326 325 322 319 322 330 336 333 336 336 336 338 338 338 344 345 353 353 352 351
308 308 307 308 309 309 310 309 313 312 312 313 313 313 315 313 312 311 311 311 316 319 318 320 321 320 321 321 320 322 326 326 330 331 330 330 334 337 341 338 338 341 342
302 303 302 302 303 303 304 305 305 305 306 305 304 304 304 303 302 303 309 309 311 312 313 313 312 312 314 316 319 318 319 324 326 324 327 330 331 333 334 336 336 336 336
299 298 298 299 299 299 298 299 300 299 300 301 301 303 301 300 298 296 297 301 302 304 304 308 306 304 305 305 306 309 310 313 316 318 323 324 326 326 326 327 327 328 328
297 297 297 296 296 296 297 296 296 296 297 296 296 297 297 296 298 301 300 296 297 296 296 297 300 302 303 300 301 304 307 308 309 312 314 316 316 316 316 317 318 319 319
Wind_Speed
42 42 41 43 43 39 37 33 24 31 30 27 30 32 30 25 22 20 17 15 14 14 13 13 13 11 9 7 7 5 6 6 5 13 14 16 15 18 19 18 20 25 29
42 40 42 43 46 43 41 38 34 27 29 31 26 28 34 29 26 24 21 19 18 16 16 14 15 12 12 13 11 9 11 10 9 13 17 19 19 20 22 26 25 24 21
39 38 37 39 41 45 43 42 36 33 29 24 24 23 32 33 29 27 24 22 21 20 18 18 19 17 17 15 14 13 13 13 13 12 16 21 24 25 25 25 23 24 28
37 38 37 38 40 43 43 42 41 39 34 29 25 27 32 34 31 29 27 25 24 24 22 20 20 20 20 19 18 19 18 17 17 19 22 24 25 25 25 20 26 35 34
38 36 37 37 37 39 40 42 46 42 41 37 33 29 33 35 35 34 28 26 26 26 25 25 24 23 23 22 22 22 21 21 22 24 25 25 28 27 24 28 33 33 31
35 35 40 34 35 37 40 40 41 48 43 41 41 36 35 35 36 35 31 29 28 28 29 27 27 27 26 24 25 26 24 25 26 27 26 24 29 29 32 32 31 28 15
32 34 33 39 37 38 36 38 38 40 42 41 41 42 41 40 38 36 33 32 31 32 32 31 29 28 28 29 26 26 28 30 31 31 30 32 32 36 34 32 31 28 24
16 31 35 35 38 36 36 37 37 37 39 38 37 40 39 41 40 37 34 33 34 35 35 35 33 32 30 28 28 30 31 32 33 33 36 38 38 36 35 32 30 30 28
18 23 34 36 36 37 38 37 36 33 35 37 36 36 37 38 39 41 39 36 36 38 37 36 35 36 34 31 30 31 32 33 33 33 30 28 28 27 29 30 30 25 17
17 13 13 35 40 38 40 38 36 36 35 35 36 37 37 38 38 38 36 37 39 40 39 40 40 39 38 36 34 33 35 41 37 36 35 34 32 32 29 26 27 24 19
23 23 23 29 40 42 39 35 35 34 32 33 34 34 36 37 38 38 39 38 35 35 36 36 42 41 40 39 38 37 40 40 39 37 37 34 29 26 24 23 23 24 24
29 23 27 33 40 38 36 35 35 33 33 32 31 30 32 34 37 37 38 40 41 35 32 38 38 39 39 39 39 41 43 43 43 39 36 34 34 32 29 25 24 21 20
28 23 25 25 37 38 36 35 34 33 32 31 30 29 28 29 32 36 39 40 41 44 37 37 38 36 35 34 33 32 34 36 37 36 32 34 37 36 30 23 20 18 19
30 28 29 23 30 34 33 34 34 33 33 31 29 28 27 26 29 30 35 39 40 42 46 42 41 38 34 33 31 30 30 29 28 30 31 31 29 27 24 21 21 20 20
22 24 28 23 28 30 32 36 37 39 39 34 31 29 27 27 32 31 29 35 40 42 42 40 28 33 36 35 33 33 31 28 28 29 28 29 27 25 24 21 21 21 20
22 21 25 22 19 28 30 29 38 38 40 41 37 35 32 34 30 31 32 33 34 34 30 25 26 28 27 28 28 30 34 39 42 40 39 36 32 28 25 23 21 18 16
22 22 26 21 11 19 24 26 25 35 36 38 39 39 36 29 33 28 28 31 35 35 28 26 26 27 29 29 30 29 31 34 34 33 32 32 31 28 24 25 19 17 17
22 20 21 21 13 10 18 21 21 23 26 29 36 39 39 37 30 28 33 29 30 34 30 27 31 32 31 30 30 29 30 29 26 27 27 28 28 26 23 22 18 17 18
19 19 22 19 15 11 11 15 25 22 20 21 29 34 39 38 37 34 28 20 24 27 28 26 27 26 27 28 27 27 28 28 29 28 26 27 25 24 25 23 17 18 18
14 15 14 13 11 7 6 12 16 21 20 18 22 23 25 21 22 22 15 10 8 7 8 17 20 20 18 16 13 10 3 4 0 7 12 16 25 29 23 19 17 16 18
13 12 12 12 12 10 12 11 4 12 13 14 11 16 20 22 21 20 17 14 13 12 11 10 8 8 9 11 12 9 8 5 9 12 5 10 22 32 18 17 11 12 14
10 11 10 13 14 17 17 14 19 18 21 20 17 23 23 22 23 21 21 21 19 16 14 16 15 12 10 9 7 3 5 8 5 10 21 24 17 16 13 10 13 16 14
8 9 12 15 17 19 21 20 22 17 22 24 20 22 24 23 24 24 23 19 20 20 16 16 17 16 15 14 14 11 8 9 7 5 6 2 6 4 10 4 8 8 10
10 12 12 17 20 23 18 22 20 25 18 27 23 25 25 20 17 22 29 24 24 22 21 22 21 20 19 17 14 12 11 7 4 2 3 3 3 4 4 4 6 7 9
17 18 16 20 19 23 21 24 22 23 17 25 25 28 25 28 28 22 26 32 27 26 23 25 23 22 23 22 18 14 9 12 9 3 4 5 5 4 4 3 6 7 8
20 17 20 21 22 22 22 26 26 21 18 27 26 31 26 24 23 31 32 28 31 27 26 26 24 22 27 20 15 12 13 16 14 11 10 11 11 10 8 8 8 7 7
Wind_Direction
197 201 207 216 221 226 228 224 217 213 217 215 218 217 218 218 217 218 215 217 226 228 234 241 241 248 259 282 275 287 286 269 256 290 298 306 309 315 314 314 315 314 311
197 199 207 214 219 225 229 229 221 217 221 216 225 224 218 218 219 220 222 223 228 233 241 245 248 243 267 264 275 279 282 288 291 291 298 304 309 312 311 315 320 324 331
196 197 202 208 214 219 228 231 229 222 219 212 219 219 216 217 220 224 225 229 234 238 242 248 247 252 255 256 262 272 278 280 280 278 293 301 304 308 314 316 319 318 321
204 197 199 205 212 215 220 229 230 227 225 222 216 217 214 215 218 223 228 231 236 242 246 250 248 248 247 252 257 264 271 273 274 281 289 296 300 303 306 307 307 313 317
200 198 204 206 211 215 215 220 229 230 231 229 224 218 219 220 220 220 224 233 237 242 246 245 247 249 252 255 257 262 265 269 274 279 282 287 289 294 294 302 303 312 316
199 200 203 206 208 212 214 215 220 229 231 234 234 230 222 221 222 224 228 232 240 244 246 246 248 250 252 256 260 262 264 265 267 269 272 273 277 284 294 299 305 309 316
201 205 205 203 210 210 210 212 217 220 223 229 233 234 234 230 227 228 231 236 242 245 248 250 252 252 253 253 258 260 263 264 264 269 270 271 276 286 293 295 296 295 290
206 212 210 206 209 210 208 208 213 217 220 221 226 229 230 233 232 232 235 239 245 248 248 251 252 255 254 255 257 260 263 265 266 268 267 272 276 284 287 291 295 297 295
219 215 211 211 210 207 208 208 210 211 216 220 222 226 225 230 234 239 238 237 238 244 248 250 251 254 257 257 257 261 266 267 268 270 273 278 278 276 283 288 286 290 296
251 247 227 217 217 208 208 207 210 211 215 217 222 223 228 229 231 234 235 236 235 239 244 250 253 255 258 258 257 259 261 266 272 275 276 278 279 282 284 276 281 271 271
313 279 260 246 218 217 210 206 207 211 214 216 220 222 224 229 231 234 234 231 231 237 239 245 250 254 255 256 257 257 257 268 271 274 278 281 281 278 275 272 273 274 267
321 309 279 250 213 214 209 207 207 208 213 215 216 221 224 224 231 232 234 234 236 232 235 246 248 255 258 258 257 257 261 267 269 269 272 274 275 275 274 276 286 279 275
313 309 293 255 217 208 203 204 205 207 211 215 215 219 223 223 226 232 237 239 239 237 238 245 253 259 262 264 262 262 264 262 265 265 261 264 267 275 280 279 271 270 269
319 321 308 273 220 208 203 205 204 207 211 214 214 218 222 222 223 226 231 235 240 241 242 245 251 255 258 261 260 255 255 256 259 262 266 272 273 272 269 266 267 272 270
318 321 317 289 222 209 204 203 206 211 210 210 214 215 215 220 224 224 225 231 235 239 242 242 243 249 250 249 250 252 252 253 254 259 261 262 264 262 258 261 262 266 255
325 325 325 317 246 212 207 207 214 215 217 217 215 215 220 227 229 227 229 237 247 249 235 227 231 235 239 242 243 248 252 254 256 258 258 257 256 255 255 258 252 247 239
323 326 324 320 327 227 211 203 205 215 218 220 222 224 225 228 229 231 236 237 242 243 225 230 226 232 236 239 242 244 249 254 259 255 249 246 250 252 251 256 244 237 255
327 328 317 316 313 291 226 211 204 202 207 214 220 224 228 231 234 236 239 240 238 241 234 226 233 236 237 240 245 247 255 259 254 250 248 246 249 247 247 240 247 251 255
323 324 319 319 316 300 261 240 231 214 210 208 213 221 225 230 231 238 241 235 237 238 238 226 233 238 245 251 257 262 264 264 260 253 246 247 248 248 248 249 233 243 254
331 337 326 337 336 330 289 250 237 239 222 213 213 213 203 196 195 194 182 179 172 167 205 225 230 238 236 233 239 253 234 214 264 52 35 12 334 295 272 260 246 247 252
351 355 5 34 24 37 39 60 91 163 134 144 171 205 191 173 158 152 144 132 133 136 137 138 128 134 124 115 119 110 103 89 76 74 35 347 346 305 282 272 269 272 270
19 16 17 43 38 51 54 56 76 85 93 79 68 118 125 117 126 124 127 125 122 120 123 130 121 101 78 58 38 345 241 227 188 234 250 245 228 244 281 268 271 262 266
40 36 33 52 58 52 58 47 71 68 81 82 78 71 87 101 107 110 106 105 112 110 106 104 100 93 85 76 64 61 62 80 107 171 209 204 121 125 133 34 351 343 317
59 64 41 53 59 55 48 60 60 71 72 84 74 76 78 71 74 102 113 103 97 98 102 94 86 84 85 81 75 55 47 47 28 81 111 59 38 31 353 59 306 323 337
64 61 54 58 57 61 56 55 55 64 68 84 88 93 90 93 82 70 79 97 95 89 83 86 79 72 76 76 72 78 75 81 73 58 87 75 50 31 2 324 303 314 317
59 62 60 62 60 69 67 71 67 55 65 80 78 83 79 74 99 98 82 81 84 83 80 74 73 66 59 57 56 52 56 57 57 60 59 69 64 57 46 29 17 12 1